Location: Huntsville
(41.2590°N, 111.7678°W)
Time: 12:28:55
(UTC+00:00)

Envisat - Pass Details

Date: 11 December 2021
Orbit: 764 x 766 km, 98.2° (Epoch: 28 January)

Event Time Altitude Azimuth Distance (km) Brightness Sun altitude
Rises 12:52:42 0° 8° (N) 3,242 6.2 -20.0°
Reaches altitude 10° 12:55:03 10° 4° (N) 2,311 5.4 -19.5°
Maximum altitude 13:00:00 55° 288° (WNW) 922 3.0 -18.6°
Drops below altitude 10° 13:04:55 10° 211° (SSW) 2,294 5.3 -17.8°
Sets 13:07:15 0° 207° (SSW) 3,216 6.1 -17.3°
